KENT RIDGE 1

Last updated on Tue Oct 15 2024 00:02:24 GMT+0000 (Coordinated Universal Time)

1 41167U 15077B 24288.58432116 .00007448 00000+0 33221-3 0 9999 2 41167 14.9791 107.9034 0009629 301.2052 58.7325 15.16776233488028
UTC large
Height (km)
Speed (km/s)
/
Latitude / Longitude
Inclination (degrees)
Orbital Period (minutes)
Azimuth
Elevation
Range (km)
Doppler Factor

Next 0 passes for location: London (51.5072 / 0.1276)

Sorry there are no passes over London.